Wind_Speed
2 2 2 2 2 2 2 3 3 3 2 3 3 3 3 3 3 3 3 3 3 2 2 2 1 2 2 1 1 1 1 1 1 0 0 1 1 1 0 0 1 1 2
2 2 2 2 2 2 1 2 2 2 2 2 3 3 3 3 3 3 3 2 2 2 2 1 1 1 1 1 0 0 0 1 1 2 2 1 2 2 2 2 2 3 3
3 3 3 2 2 2 1 1 1 1 1 1 1 1 1 2 2 2 2 1 1 1 1 0 1 1 1 1 1 1 2 2 3 3 3 3 3 3 4 4 4 4 5
5 4 4 3 3 3 2 2 1 1 1 0 0 0 0 1 1 1 1 0 1 1 1 2 2 2 2 2 3 3 3 4 4 4 4 4 4 5 5 5 5 5 6
6 5 5 5 5 5 4 3 2 1 1 1 1 1 2 2 1 2 2 2 2 2 2 3 3 3 3 4 4 4 5 5 5 5 6 7 7 6 6 6 6 6 6
6 6 6 6 6 6 6 5 4 4 3 3 3 3 3 3 3 4 4 4 4 4 4 4 4 5 5 5 6 6 6 7 7 7 8 8 8 8 8 8 8 8 8
8 7 6 6 7 7 7 7 6 6 5 5 5 5 5 5 5 5 6 6 6 6 5 6 6 7 7 7 8 8 8 8 8 9 9 9 10 10 10 10 9 9 9
9 9 8 8 8 8 8 8 8 7 7 7 7 7 7 7 8 8 8 8 9 8 8 8 8 8 9 9 9 9 9 10 10 10 10 10 11 11 11 11 11 11 10
10 10 10 9 10 10 10 10 10 10 9 9 9 9 10 10 10 10 10 11 11 11 10 10 10 11 11 11 11 11 11 11 12 12 12 12 12 12 12 12 13 13 13
11 12 11 11 12 11 12 12 12 12 12 12 11 12 12 12 12 12 12 13 13 13 13 12 13 13 13 13 13 13 13 13 13 14 14 14 14 14 14 15 15 15 15
12 13 13 13 13 14 14 14 13 14 13 14 14 14 13 13 14 15 15 15 15 15 15 16 15 15 15 15 15 15 15 16 16 16 16 16 16 17 17 17 17 18 18
14 14 15 15 15 15 15 15 16 16 16 16 16 16 16 15 15 16 16 17 17 17 17 17 18 18 17 17 17 17 18 18 18 19 19 19 19 20 20 20 20 20 21
15 15 15 15 15 15 16 17 17 17 17 17 17 17 17 16 17 17 18 18 18 19 19 19 19 20 20 20 19 19 19 20 21 21 21 21 22 23 23 23 23 24 24
15 15 15 15 15 16 16 17 18 18 18 19 19 19 18 18 19 19 19 20 20 20 21 21 22 22 22 22 22 21 21 22 23 23 24 24 25 25 26 26 26 26 27
14 14 14 15 16 16 17 18 18 18 18 18 19 19 20 20 20 20 21 21 21 22 22 23 24 24 24 24 24 24 23 23 24 24 25 27 28 28 28 28 28 29 29
15 15 15 15 16 16 17 18 18 18 18 18 19 20 21 21 21 21 22 23 23 23 24 25 25 26 26 26 25 25 25 25 26 27 27 28 28 29 30 30 31 31 32
15 16 15 16 16 16 17 17 18 18 19 19 20 21 21 21 22 23 23 23 24 25 25 26 27 27 28 28 28 28 28 28 30 30 30 30 31 31 33 33 33 33 33
14 15 15 16 16 17 17 18 18 19 19 20 21 21 21 22 22 23 23 24 24 25 25 26 26 27 28 29 29 28 29 30 31 31 32 33 34 35 35 35 36 36 35
14 15 16 17 17 17 18 18 19 19 20 20 21 21 22 22 23 23 24 24 24 25 26 27 28 27 27 28 28 29 31 31 32 33 33 33 34 35 36 36 36 35 34
15 16 16 17 17 17 17 18 19 19 20 20 21 22 23 24 25 25 25 25 26 26 27 28 28 27 28 28 29 31 32 33 34 34 34 34 35 35 36 36 36 36 35
16 16 16 16 17 17 18 18 18 19 19 20 21 21 22 23 23 24 24 26 26 27 27 28 28 28 29 30 31 32 32 32 33 33 34 34 35 36 36 35 35 36 36
15 16 16 16 17 17 17 17 18 18 20 21 22 22 22 23 24 25 25 25 26 26 27 27 27 28 30 31 32 32 32 32 32 32 33 33 34 35 35 35 35 36 36
16 16 17 17 18 18 17 18 19 20 20 21 21 22 23 24 24 25 25 25 25 26 28 28 28 29 31 32 33 32 32 33 33 33 34 34 35 36 36 36 37 37 38
15 16 17 18 18 18 19 19 20 20 21 22 23 23 24 24 25 25 26 26 27 27 28 28 28 29 30 31 32 33 33 34 33 33 34 34 35 36 36 37 37 38 38
15 16 17 18 19 19 19 20 21 22 23 24 24 24 24 25 25 25 26 26 27 28 28 28 29 29 30 31 32 33 33 33 33 34 35 35 36 36 37 37 38 39 40
17 17 18 18 19 19 20 21 22 22 24 24 24 24 25 25 26 27 27 27 27 27 28 28 29 29 30 31 32 33 34 34 34 35 35 36 36 37 37 38 39 40 40
Wind_Direction
161 162 151 143 129 112 101 101 96 91 88 88 91 90 93 94 99 108 104 105 115 117 115 116 114 95 86 85 107 123 166 187 190 204 197 225 225 200 211 327 327 319 312
200 202 193 178 167 145 122 105 94 81 74 81 91 95 98 94 98 107 107 103 104 111 112 102 85 72 56 33 15 338 272 253 254 268 271 261 251 250 271 289 294 294 295
222 218 216 217 208 191 160 129 92 69 83 99 107 106 112 100 105 108 124 112 97 111 118 88 33 8 357 329 295 293 297 291 278 272 269 269 265 270 278 284 287 285 288
231 231 227 230 224 218 212 199 178 55 59 112 121 104 134 173 167 163 145 133 331 305 286 285 292 301 299 295 286 280 282 285 282 275 274 275 276 277 279 280 286 287 285
237 240 237 237 239 235 234 233 231 244 273 276 264 263 269 270 258 259 265 277 294 295 286 283 281 282 288 288 284 279 275 275 276 276 274 276 278 279 279 280 283 284 283
238 243 247 248 244 237 240 245 247 253 264 270 269 263 264 272 272 265 266 272 279 281 281 280 281 282 284 285 283 281 278 276 276 277 277 279 279 278 277 279 281 283 283
244 248 252 256 250 244 246 247 249 256 264 263 266 266 266 272 273 270 267 268 274 283 281 279 279 282 283 282 281 280 279 278 276 277 277 278 279 275 275 276 279 280 280
250 253 255 254 250 248 250 248 249 257 262 265 265 266 268 271 273 272 271 269 272 278 280 282 286 286 285 282 279 279 278 278 277 276 277 277 275 274 274 274 275 276 277
253 255 257 258 256 251 248 248 252 257 261 265 268 268 268 269 273 273 273 273 272 273 276 279 284 286 287 286 283 281 278 278 276 274 274 276 275 273 272 272 274 276 276
259 263 262 260 258 257 255 254 257 259 262 266 270 272 269 271 272 272 273 272 271 273 275 278 282 283 284 285 283 280 279 278 277 275 274 274 274 273 272 273 274 275 275
263 265 265 262 257 258 260 260 262 263 264 267 271 274 273 274 273 271 272 273 273 274 275 277 280 281 280 282 280 279 278 278 277 276 276 275 274 273 273 273 275 276 275
265 264 263 262 261 260 261 263 266 266 266 268 271 274 274 273 274 274 275 275 275 276 276 277 279 278 279 280 280 278 278 278 278 276 276 275 274 274 273 274 275 276 276
267 267 263 261 262 262 263 265 266 266 267 268 270 273 274 271 272 275 276 275 275 276 276 277 278 278 278 278 280 278 278 277 277 276 275 275 274 274 274 274 275 275 275
270 271 264 261 263 265 266 267 267 268 269 268 268 271 272 272 272 274 276 275 276 276 276 276 277 278 279 278 278 278 279 279 277 275 274 274 274 274 274 273 273 273 274
269 267 265 267 268 269 269 269 269 269 269 269 268 270 272 273 273 275 277 277 277 275 276 277 278 279 279 278 277 278 280 281 279 277 275 274 273 274 274 273 272 273 273
267 266 266 268 270 272 271 270 268 266 267 271 271 271 272 272 273 275 276 276 276 275 274 276 277 279 280 280 280 280 280 281 281 279 279 277 275 274 274 274 273 273 274
268 269 270 268 270 272 272 272 269 268 269 270 272 274 274 273 275 276 277 278 278 277 277 276 277 278 278 281 282 281 280 281 280 280 279 278 277 276 276 275 275 273 274
271 271 271 273 274 274 273 272 271 269 269 271 274 276 275 274 274 277 278 278 280 280 279 279 280 278 278 279 280 280 280 280 280 279 278 278 277 276 275 276 275 274 275
273 273 274 276 277 275 274 274 275 272 273 273 275 276 276 276 278 278 279 280 280 281 279 278 279 279 279 280 279 279 280 280 280 280 280 279 279 279 278 278 276 276 276
276 278 278 277 277 276 276 277 276 274 275 275 278 278 279 279 279 279 279 280 280 281 281 280 279 277 279 281 281 281 281 281 281 281 280 280 281 281 281 280 279 279 278
276 278 278 278 280 281 280 280 277 276 278 279 280 281 281 281 282 284 282 282 282 283 284 284 281 280 280 281 283 284 283 284 283 282 282 282 282 281 282 283 282 281 279
276 277 278 281 282 282 281 279 278 280 283 282 282 281 282 284 286 285 286 287 286 287 286 287 286 283 283 284 285 285 285 285 283 282 280 281 282 282 283 283 282 281 280
280 279 279 280 280 279 279 280 281 282 283 284 285 284 285 286 287 289 289 290 290 289 289 287 286 285 285 285 285 287 289 290 288 286 285 285 284 284 284 284 283 282 282
289 285 283 283 281 279 280 281 281 283 284 285 285 285 287 287 287 289 290 290 290 290 290 290 290 289 288 288 289 289 289 291 290 290 289 287 286 286 285 284 284 283 283
292 289 288 285 283 282 282 283 284 285 285 287 287 287 289 290 290 291 292 292 292 291 292 292 293 292 292 291 291 291 292 292 292 291 290 289 288 287 287 286 285 285 286
293 292 291 286 285 285 286 286 288 288 288 289 290 290 290 290 290 292 293 294 293 293 294 294 294 294 295 294 294 294 294 294 293 292 291 290 289 288 287 287 287 286 286
Height
5913 5913 5913 5913 5913 5913 5913 5912 5912 5912 5912 5911 5911 5911 5911 5911 5910 5910 5910 5910 5910 5910 5910 5910 5910 5910 5910 5910 5909 5909 5909 5910 5910 5910 5910 5910 5910 5910 5910 5910 5910 5910 5910
5912 5913 5913 5913 5913 5913 5913 5913 5912 5912 5912 5912 5912 5911 5911 5911 5911 5911 5911 5910 5910 5911 5911 5910 5910 5910 5910 5910 5910 5910 5910 5910 5910 5909 5909 5910 5910 5910 5910 5910 5910 5910 5909
5912 5912 5912 5913 5913 5913 5913 5913 5913 5912 5912 5912 5912 5912 5912 5911 5911 5911 5911 5911 5911 5911 5911 5911 5910 5910 5910 5910 5910 5910 5909 5909 5909 5909 5909 5909 5909 5909 5909 5909 5909 5909 5908
5911 5911 5912 5912 5912 5912 5913 5913 5912 5912 5912 5912 5912 5912 5912 5912 5912 5911 5911 5911 5911 5911 5911 5910 5910 5910 5910 5909 5909 5909 5909 5909 5909 5909 5908 5908 5908 5908 5908 5908 5908 5907 5907
5910 5910 5911 5911 5911 5912 5912 5912 5912 5912 5912 5912 5912 5912 5912 5912 5911 5911 5911 5911 5911 5910 5910 5910 5910 5909 5909 5909 5908 5908 5908 5908 5908 5908 5907 5907 5907 5907 5907 5906 5906 5906 5906
5909 5909 5910 5910 5910 5911 5911 5911 5911 5911 5911 5911 5911 5911 5911 5911 5911 5911 5911 5910 5910 5910 5909 5909 5909 5908 5908 5908 5907 5907 5907 5906 5906 5906 5906 5905 5905 5905 5905 5905 5904 5904 5904
5908 5908 5909 5909 5909 5909 5910 5910 5910 5910 5910 5910 5910 5910 5910 5910 5910 5910 5910 5910 5909 5909 5909 5908 5908 5907 5907 5906 5906 5906 5905 5905 5904 5904 5904 5904 5903 5903 5903 5902 5902 5902 5902
5907 5907 5907 5907 5907 5908 5908 5909 5909 5909 5909 5909 5909 5909 5909 5910 5909 5909 5909 5908 5908 5908 5907 5907 5906 5906 5905 5905 5904 5904 5904 5903 5902 5902 5902 5901 5901 5901 5900 5900 5900 5899 5899
5905 5905 5905 5905 5906 5906 5906 5906 5907 5907 5907 5907 5907 5907 5907 5907 5907 5907 5907 5906 5906 5906 5906 5905 5904 5904 5903 5903 5902 5902 5901 5901 5900 5900 5899 5899 5898 5898 5897 5897 5897 5896 5896
5902 5902 5902 5903 5903 5903 5904 5904 5904 5904 5905 5905 5905 5905 5904 5904 5904 5904 5904 5904 5904 5903 5903 5902 5902 5901 5901 5900 5900 5899 5898 5898 5897 5897 5896 5896 5895 5895 5894 5894 5894 5893 5893
5899 5899 5900 5900 5900 5900 5901 5901 5901 5902 5902 5902 5902 5902 5901 5901 5901 5901 5901 5901 5900 5900 5900 5899 5899 5898 5897 5897 5896 5896 5895 5894 5894 5893 5893 5892 5892 5891 5891 5890 5890 5889 5889
5896 5896 5896 5897 5897 5897 5898 5898 5898 5898 5898 5898 5898 5898 5898 5898 5898 5897 5897 5897 5897 5896 5896 5895 5895 5894 5893 5893 5892 5891 5891 5890 5890 5889 5888 5888 5887 5887 5886 5886 5885 5884 5884
5892 5892 5892 5893 5893 5893 5894 5894 5894 5894 5895 5895 5894 5894 5894 5894 5894 5894 5893 5893 5892 5892 5892 5891 5890 5890 5889 5888 5887 5887 5886 5885 5885 5884 5883 5883 5882 5881 5881 5880 5879 5879 5878
5888 5887 5888 5889 5889 5890 5890 5890 5890 5890 5890 5890 5890 5890 5890 5889 5889 5889 5889 5888 5888 5887 5887 5886 5885 5884 5884 5883 5882 5882 5881 5880 5879 5878 5878 5877 5876 5875 5874 5874 5873 5872 5871
5885 5885 5885 5886 5886 5886 5886 5886 5886 5886 5886 5886 5886 5886 5885 5885 5885 5884 5884 5883 5883 5883 5882 5881 5880 5879 5878 5877 5876 5876 5875 5874 5873 5872 5871 5871 5869 5868 5868 5867 5866 5865 5864
5882 5882 5882 5882 5882 5882 5882 5882 5881 5882 5882 5881 5881 5881 5880 5880 5880 5879 5879 5878 5877 5877 5876 5875 5874 5872 5871 5871 5870 5869 5868 5868 5867 5866 5865 5863 5862 5861 5860 5859 5858 5857 5856
5879 5879 5879 5879 5879 5878 5878 5877 5877 5877 5877 5877 5876 5876 5875 5875 5874 5874 5873 5872 5871 5871 5870 5869 5867 5866 5865 5864 5863 5862 5861 5860 5859 5858 5857 5856 5854 5853 5852 5850 5849 5848 5847
5875 5875 5875 5875 5875 5874 5874 5873 5873 5873 5872 5872 5872 5871 5871 5870 5869 5868 5867 5866 5865 5864 5863 5862 5861 5859 5858 5857 5856 5854 5853 5852 5851 5850 5848 5847 5846 5844 5843 5841 5840 5838 5837
5872 5872 5872 5871 5871 5870 5870 5869 5868 5868 5868 5867 5867 5866 5865 5864 5863 5862 5861 5860 5859 5858 5857 5855 5854 5853 5851 5849 5848 5847 5845 5844 5842 5841 5839 5838 5836 5835 5833 5831 5830 5828 5827
5868 5868 5868 5867 5867 5866 5865 5865 5864 5863 5863 5862 5861 5860 5860 5859 5858 5856 5855 5854 5852 5851 5849 5847 5846 5845 5844 5842 5840 5839 5837 5835 5834 5832 5830 5828 5826 5825 5823 5821 5820 5818 5817
5865 5864 5864 5863 5863 5862 5861 5860 5859 5859 5858 5857 5856 5855 5854 5853 5852 5850 5849 5847 5845 5844 5842 5840 5839 5837 5836 5834 5832 5830 5828 5826 5824 5822 5820 5818 5816 5814 5813 5811 5809 5808 5807
5861 5860 5860 5859 5858 5858 5857 5856 5855 5854 5853 5852 5851 5850 5849 5847 5846 5844 5843 5841 5839 5837 5836 5834 5832 5830 5828 5826 5824 5822 5819 5817 5815 5814 5811 5809 5806 5805 5803 5801 5799 5798 5796
5856 5856 5855 5855 5854 5853 5852 5852 5851 5849 5848 5847 5845 5844 5843 5842 5840 5839 5837 5835 5832 5831 5829 5827 5825 5823 5821 5818 5816 5813 5811 5809 5806 5804 5801 5799 5797 5795 5793 5790 5789 5787 5785
5852 5851 5851 5850 5849 5848 5848 5847 5846 5845 5843 5842 5840 5838 5837 5835 5834 5832 5830 5828 5826 5824 5821 5819 5817 5815 5813 5810 5808 5805 5802 5800 5797 5794 5792 5789 5787 5784 5782 5780 5778 5776 5774
5849 5848 5847 5846 5845 5844 5843 5842 5841 5839 5838 5836 5834 5832 5831 5829 5828 5826 5824 5821 5819 5816 5814 5812 5809 5807 5804 5802 5799 5796 5793 5790 5787 5785 5782 5779 5777 5774 5771 5769 5767 5764 5762
5846 5844 5843 5841 5840 5839 5838 5837 5836 5834 5832 5830 5828 5827 5825 5823 5821 5819 5817 5814 5811 5809 5807 5804 5801 5799 5796 5793 5790 5787 5784 5781 5778 5775 5772 5769 5766 5763 5761 5758 5755 5752 5750